Meteo Giornale » Osservazioni meteo Iran » Masjed-Soleyman
ore: 10:30 - Osservazioni Meteo Masjed-Soleyman
Lat. 31° 59' N Lon. 49° 16' E Alt. 372 metri s.l.m.
38 °C
Sereno
Temp. 24 Ore
29 °C
46 °C
Sud/Sud-Est
7.4 Km/h
Dew point 9 °C
Umidità 17 %
Visibilità 10 Km
Il sole sorge alle ore 05:48
Il sole tramonta alle ore 18:37
| Data e Ora | Cielo e Fenomeni | T °C | DP °C | Um. % | Pres. hPa | Vis. km | Vento km/h | |
|---|---|---|---|---|---|---|---|---|
| Oggi h: 10:30 | Sereno | 38 | 9 | 17 | 1005 | 10 | S/SE 7.4 | |
| Oggi h: 09:30 | Sereno | 36 | 9 | 19 | 1005 | 10 | S 7.4 | |
| Oggi h: 08:30 | Sereno | 35 | 9 | 20 | 1005 | 10 | N 5.5 | |
| Oggi h: 07:30 | Sereno | 32 | 7 | 21 | 1005 | 10 | N 5.5 | |
| Oggi h: 06:30 | Sereno | 29 | 6 | 23 | 1005 | 10 | SE 7.4 | |
| Oggi h: 05:30 | Sereno | 29 | 6 | 23 | 1005 | 10 | N 5.5 | |
| Oggi h: 04:30 | Sereno | 29 | 7 | 25 | 1005 | 10 | N 3.7 | |
| Oggi h: 03:30 | Sereno | 30 | 6 | 22 | 1005 | 10 | N 3.7 | |
| Oggi h: 00:30 | Sereno | 33 | 7 | 19 | 1004 | 10 | N 5.5 | |
| Ieri h: 23:30 | Sereno | 34 | 7 | 18 | 1005 | 10 | N 3.7 | |
| Ieri h: 22:30 | Sereno | 37 | 8 | 17 | 1004 | 10 | N 5.5 | |
| Ieri h: 21:30 | Sereno | 37 | 9 | 18 | 1005 | 10 | N/NO 7.4 | |
| Ieri h: 20:30 | Sereno | 38 | 9 | 17 | 1004 | 10 | N 5.5 | |
| Ieri h: 19:30 | Sereno | 39 | 9 | 16 | 1003 | 10 | NO 9.3 | |
| Ieri h: 18:30 | Sereno | 41 | 10 | 15 | 1003 | 10 | O/NO 13 | |
| Ieri h: 17:30 | Sereno | 43 | 10 | 14 | 1003 | 10 | NO 13 | |
| Ieri h: 16:30 | Sereno | 44 | 11 | 14 | 1003 | 10 | O/NO 14.8 | |
| Ieri h: 15:30 | Sereno | 45 | 12 | 14 | 1003 | 10 | O 16.7 | |
| Ieri h: 14:30 | Sereno | 46 | 12 | 13 | 1003 | 10 | O/NO 14.8 | |
| Ieri h: 13:30 | Sereno | 45 | 10 | 12 | 1004 | 10 | O 20.3 | |
| Ieri h: 12:30 | Sereno | 45 | 11 | 13 | 1004 | 10 | O/NO 18.5 | |
| Ieri h: 11:30 | Sereno | 44 | 10 | 13 | 1005 | 10 | N/NO 13 | |



